GFSFLT1_850_rhum_207.txt.gz
RH
40 55 72 62 78 92 80 67 68 78 91 96 93 92 92 95 96 99 100 99 86 82 74 48 21 22 25 29 26 23 21 23
41 51 55 88 86 78 73 94 72 84 87 91 99 92 90 95 95 96 98 100 93 86 88 70 57 29 26 28 30 30 32 36
46 50 60 54 96 92 93 91 96 92 87 75 98 99 100 99 97 94 99 98 99 98 90 74 74 38 33 30 33 35 37 37
51 52 60 75 88 100 100 99 100 100 97 99 99 100 98 99 99 99 96 99 100 100 96 87 80 45 33 32 32 34 30 42
48 53 58 67 94 96 99 100 100 97 100 99 98 100 100 77 94 100 100 100 100 100 99 97 86 57 39 38 34 32 33 29
42 45 49 56 74 94 100 100 100 100 100 100 100 95 99 100 99 100 100 100 99 99 100 99 93 62 49 44 37 35 32 29
40 39 44 50 55 67 83 94 98 100 100 100 100 95 99 100 100 100 100 100 100 100 100 98 91 81 59 45 39 38 32 39
30 23 31 37 44 54 60 69 75 95 100 99 99 99 100 95 82 97 100 99 99 99 99 97 88 78 61 49 46 43 44 50
24 19 20 33 45 52 63 64 62 68 87 100 100 100 100 100 100 100 99 100 98 94 95 92 88 85 75 64 56 49 50 52
25 17 18 33 52 55 53 52 58 71 77 74 100 100 99 100 99 100 100 100 99 100 94 91 85 85 80 65 62 62 55 60
36 28 20 23 39 45 52 49 40 48 60 62 84 94 87 94 97 91 99 100 100 98 96 83 88 86 80 70 68 65 62 70
42 38 20 21 32 38 39 42 41 51 57 55 86 99 86 92 93 92 98 100 100 100 97 86 91 92 86 80 76 77 81 89
30 27 26 24 28 32 33 36 37 41 47 57 64 76 83 82 82 87 80 99 100 99 100 93 92 96 97 94 91 91 87 96
16 16 25 27 40 43 34 31 35 42 52 58 60 60 67 68 66 74 90 94 91 95 99 100 100 97 97 99 98 96 98 99
24 27 34 42 43 45 47 52 50 52 54 55 53 60 59 64 66 68 81 71 82 99 98 100 99 100 99 100 100 100 100 100
43 44 40 44 46 42 40 44 46 47 48 54 59 63 63 62 64 63 72 78 100 96 99 98 100 100 100 100 100 100 100 100
32 31 31 31 31 34 35 37 38 45 46 51 58 60 69 67 67 66 65 81 96 100 100 98 100 99 100 100 100 100 100 100
29 26 23 23 22 26 32 32 31 32 38 37 48 54 56 52 50 61 69 70 91 97 100 98 99 100 100 100 100 100 100 100
25 23 24 27 28 24 24 23 34 38 36 45 48 48 54 54 51 47 64 77 84 100 98 98 96 97 100 99 100 100 100 100

GFSFLT1_850_rhum_210.txt.gz
RH
45 46 41 37 62 84 92 83 79 81 93 92 88 81 73 70 70 74 76 79 100 100 94 92 87 61 20 13 20 26 27 30
41 38 42 37 50 98 99 100 90 93 98 99 98 96 100 98 89 90 89 90 95 99 100 100 94 67 31 15 24 34 33 35
44 46 43 45 53 77 99 100 100 100 100 100 100 100 100 100 100 96 94 94 97 98 97 99 80 68 23 18 25 35 34 34
46 47 48 48 45 46 64 83 98 100 100 100 100 100 100 100 98 100 99 99 100 95 99 100 96 90 40 25 22 33 30 39
40 40 47 50 54 63 54 57 78 89 98 100 100 98 99 99 100 99 99 100 100 100 98 98 100 93 74 52 36 32 34 30
33 25 29 38 45 53 54 72 90 92 87 86 100 98 100 100 100 99 98 99 100 99 100 99 100 100 89 76 52 40 40 34
28 22 20 24 35 44 50 53 57 58 58 66 84 97 100 99 100 100 99 99 100 100 100 100 100 100 99 89 64 41 37 40
33 22 21 21 31 43 47 44 38 43 48 63 72 79 92 99 100 100 100 100 100 99 100 99 100 99 100 96 76 50 41 41
41 40 40 35 22 34 40 43 36 38 46 48 60 75 80 81 73 94 98 100 100 98 98 100 100 100 100 89 65 50 60 52
35 36 37 38 37 25 39 42 41 37 44 51 55 68 90 81 79 73 93 100 98 99 100 93 87 96 100 98 87 88 69 52
25 25 21 23 34 26 31 38 37 36 38 51 58 63 80 73 94 87 83 87 97 99 99 89 98 99 99 97 100 95 85 76
24 20 19 17 22 24 26 31 30 29 32 46 57 64 59 64 74 97 95 89 91 99 97 100 100 100 100 100 100 99 97 86
23 26 18 18 22 20 24 26 26 27 31 35 44 55 63 63 66 68 72 69 90 99 98 100 92 98 96 94 99 98 94 91
25 25 30 28 33 42 42 43 45 44 41 46 48 51 62 66 69 71 85 98 82 88 91 99 99 92 95 100 100 100 99 100
42 48 45 43 46 44 41 41 44 46 48 49 52 54 59 63 66 63 66 76 98 92 99 93 98 96 97 98 98 100 100 100
35 37 34 31 33 31 34 35 37 38 43 44 44 45 52 65 65 62 65 67 76 99 99 98 88 98 99 100 99 99 100 100
34 28 26 24 25 25 24 29 31 31 32 34 44 43 49 57 55 51 55 62 74 89 90 98 100 100 99 100 100 98 100 100
26 23 22 22 20 21 25 28 26 22 24 37 40 48 55 50 52 52 49 43 43 86 100 98 98 100 100 100 100 100 100 100
26 26 27 26 25 26 26 27 26 25 24 26 40 40 44 46 46 52 51 42 46 56 100 100 100 100 100 100 100 100 100 100

GFSFLT1_850_rhum_216.txt.gz
RH
52 55 49 58 38 34 44 81 98 98 98 97 98 100 100 100 99 99 93 78 64 81 91 98 92 79 87 81 77 64 54 53
46 50 53 56 39 36 42 53 61 89 82 87 93 98 98 98 91 92 96 98 90 96 99 100 100 93 85 83 85 73 47 52
39 43 46 48 48 38 51 44 43 69 91 96 98 91 87 97 100 99 96 99 96 100 99 100 100 100 98 94 94 84 69 41
35 38 43 48 44 32 43 39 35 39 48 86 87 95 99 99 93 94 96 99 98 100 100 100 100 100 99 91 95 98 76 57
34 34 39 44 44 35 32 29 30 32 35 46 48 77 82 73 98 99 100 100 97 97 100 99 100 100 100 98 97 99 99 74
40 40 41 46 39 32 28 35 42 29 28 31 43 59 74 78 75 70 82 83 96 100 100 100 99 100 100 100 100 100 97 88
41 39 38 42 47 44 24 21 45 29 27 28 29 34 44 70 82 83 87 84 83 78 82 98 100 100 100 99 99 100 100 98
48 47 44 38 38 44 33 24 16 19 25 31 28 30 41 70 68 82 79 95 86 73 84 97 100 100 99 100 100 100 99 100
41 34 31 33 35 40 30 35 41 34 24 28 26 29 36 53 64 58 56 74 76 78 78 94 96 100 100 100 100 100 100 99
33 34 34 35 33 34 36 19 21 33 28 22 21 25 29 38 53 61 67 62 65 66 69 75 76 85 95 100 100 100 100 100
33 35 34 34 36 38 44 23 23 21 23 25 24 24 28 34 48 66 69 71 66 72 77 74 78 82 85 88 99 100 100 100
28 28 30 35 40 44 48 51 49 47 51 59 49 43 45 65 80 88 94 88 89 78 73 86 81 85 85 81 94 100 100 100
29 30 32 36 39 40 45 53 54 55 59 67 75 77 80 76 81 80 89 68 70 85 67 72 98 87 89 98 97 98 100 100
30 29 28 30 36 40 39 42 41 45 47 51 56 64 67 70 70 60 48 61 67 71 68 69 84 99 87 94 98 99 100 99
24 26 27 28 30 31 30 31 32 34 36 38 41 45 50 60 73 58 53 54 54 52 58 61 71 98 99 98 98 100 99 100
24 26 26 28 29 30 30 31 33 33 31 31 35 39 42 44 63 79 58 52 45 46 51 49 55 78 99 100 96 100 100 100
24 24 24 25 27 29 30 31 31 34 36 33 32 37 37 38 43 64 64 44 43 44 51 53 47 60 100 100 100 100 100 100
24 26 29 30 31 30 32 35 37 36 34 32 30 32 38 38 38 44 54 43 47 46 51 51 42 52 93 100 100 98 100 100
29 31 32 32 32 35 38 39 38 39 39 36 32 30 33 38 46 52 45 28 35 47 55 52 48 50 90 100 99 99 99 100

GFSFLT1_850_rhum_222.txt.gz
RH
41 45 51 59 60 68 64 72 87 86 85 97 90 86 89 88 86 92 97 96 96 97 93 88 87 92 99 89 86 90 90 79
40 44 47 54 55 56 60 62 73 76 81 89 89 92 90 91 91 84 87 94 93 98 98 99 97 95 92 96 89 90 91 89
38 43 47 51 56 54 54 54 36 33 38 65 77 56 52 70 79 72 87 81 89 88 89 87 100 96 99 100 99 100 97 92
34 39 44 45 51 49 50 52 53 42 32 52 45 48 63 63 71 32 21 31 66 87 76 94 95 94 97 97 100 100 98 98
31 36 42 45 52 53 52 49 49 51 32 25 26 31 56 59 57 64 56 35 30 30 59 86 96 99 99 78 99 98 100 100
34 35 36 40 40 48 46 37 40 42 38 32 28 21 23 32 55 64 62 60 70 67 67 84 76 84 94 97 96 98 100 100
33 36 38 39 38 38 38 38 39 37 42 43 43 49 38 32 32 35 31 59 57 64 61 51 54 70 79 90 98 96 99 93
40 35 30 31 33 35 36 36 36 37 38 37 43 46 50 53 56 48 65 66 66 62 60 44 49 55 63 80 72 79 92 99
30 29 30 31 32 31 30 29 32 36 40 40 43 48 57 65 66 67 65 68 78 84 82 67 70 59 59 64 65 57 63 72
29 29 28 27 26 28 29 32 35 37 39 45 49 51 57 57 64 70 70 74 76 83 84 90 78 82 76 77 76 71 63 61
24 24 26 28 28 28 29 33 36 37 40 44 47 54 58 69 74 70 73 76 78 76 77 71 69 74 71 84 84 83 78 74
22 23 25 24 24 25 26 26 30 34 36 40 42 44 50 53 54 59 73 79 92 80 98 77 73 64 58 71 99 98 81 87
21 21 22 21 23 26 26 27 28 29 30 30 32 32 37 40 43 47 50 49 45 56 71 86 79 67 63 56 58 79 77 61
17 17 19 20 22 22 22 24 24 29 29 29 29 31 32 32 34 37 42 45 43 47 53 54 62 64 69 48 50 57 56 51
16 16 17 19 19 19 20 21 22 23 25 26 27 28 30 36 36 35 35 34 37 38 47 40 65 83 63 52 49 51 50 45
15 15 16 17 18 20 22 24 25 26 28 28 29 31 32 33 34 32 35 40 36 35 36 42 46 63 61 59 49 52 54 56
16 17 18 22 26 30 33 34 35 35 35 35 34 32 31 34 36 36 33 33 37 36 45 56 54 62 71 72 59 50 54 47
20 28 31 35 38 39 40 41 41 42 43 44 44 44 43 39 35 36 38 39 39 44 49 51 44 39 62 71 64 64 58 47
33 35 37 40 42 44 44 44 46 47 49 51 54 55 58 61 59 56 46 52 57 54 51 79 48 37 51 57 60 66 63 54

GFSFLT1_850_rhum_225.txt.gz
RH
46 51 57 64 68 72 84 79 76 85 87 86 87 81 76 82 83 83 85 81 84 90 91 91 89 93 98 95 93 91 93 83
48 52 56 56 56 44 55 81 83 78 80 89 85 68 65 51 37 42 59 62 69 74 79 88 86 89 90 94 96 94 93 91
45 47 47 49 53 53 48 37 34 30 38 40 36 29 34 32 29 28 30 20 28 40 67 78 81 79 72 83 93 96 99 100
44 45 44 48 49 50 48 44 32 28 25 22 22 20 20 21 31 51 54 28 28 26 35 66 75 78 75 86 88 92 100 100
39 40 44 44 40 42 41 40 40 38 28 22 21 21 21 18 26 45 47 55 51 36 24 32 47 56 71 76 64 89 89 94
36 40 42 41 38 35 30 29 31 25 20 29 41 40 30 23 23 28 32 56 54 47 57 68 56 71 83 78 98 91 98 90
35 36 40 38 34 35 36 35 35 33 30 29 36 38 44 52 51 46 44 48 52 70 68 67 78 78 62 68 89 92 92 96
35 37 34 36 38 37 35 35 34 32 32 31 38 42 42 45 52 62 71 70 68 73 72 77 70 66 56 58 59 63 67 66
30 30 31 30 28 27 28 28 28 28 33 34 36 38 42 49 56 65 65 66 73 74 78 84 85 78 66 67 58 52 57 60
29 29 28 28 27 27 28 29 31 32 31 34 40 47 47 59 60 64 66 66 71 78 81 80 81 81 93 89 71 62 67 58
24 23 25 27 27 26 26 26 26 26 29 30 34 38 43 41 42 48 50 48 48 52 50 47 54 64 76 89 96 75 74 56
23 23 23 23 22 23 25 26 26 26 30 31 31 30 32 32 33 38 40 41 43 44 40 36 32 37 41 73 98 88 67 66
21 20 20 20 21 22 23 22 22 22 23 22 25 29 28 27 28 30 32 33 33 33 34 34 35 44 37 76 63 73 60 60
18 17 19 19 19 19 18 18 20 22 22 24 26 27 27 28 29 30 31 37 38 36 36 38 35 38 41 47 66 87 57 67
16 16 15 15 16 18 21 25 27 29 30 32 31 29 30 30 32 33 34 34 34 33 32 35 40 35 40 57 66 68 60 65
15 15 17 24 26 28 31 35 38 38 39 41 42 43 43 43 42 41 39 36 34 35 35 33 34 41 49 65 63 58 60 60
17 26 29 32 34 38 40 42 43 45 45 45 46 48 52 55 56 58 55 51 52 49 44 47 53 61 63 57 43 46 48 58
31 34 34 35 37 41 44 47 50 51 56 58 59 59 60 58 61 64 64 65 66 68 78 64 59 59 58 54 41 42 48 48
33 32 33 36 41 46 50 52 55 55 58 66 68 66 65 66 72 75 70 70 78 77 78 74 71 64 67 56 51 52 49 44

GFSFLT1_850_rhum_231.txt.gz
RH
65 55 46 39 39 57 73 90 88 99 84 86 95 87 81 78 67 56 49 51 54 52 73 91 94 95 97 99 99 100 100 95
76 68 63 60 71 77 89 96 86 78 82 81 71 55 42 27 17 16 14 16 25 27 24 30 43 43 38 34 47 96 99 99
69 69 75 78 88 86 86 89 83 78 75 60 31 29 24 22 21 23 22 29 35 40 36 32 40 49 35 35 52 55 54 75
63 60 56 74 83 91 91 86 81 65 36 24 24 25 23 21 20 19 20 23 28 33 37 41 45 47 66 71 71 76 77 65
57 52 49 49 61 56 50 40 30 24 22 18 14 12 10 12 17 24 28 32 35 43 49 49 53 64 73 81 86 82 78 77
56 52 48 45 43 40 34 30 26 22 22 21 17 16 17 17 21 24 26 25 27 36 48 58 64 74 84 82 80 80 80 78
54 50 48 44 43 40 36 31 26 29 30 22 16 13 15 23 28 31 40 49 56 56 52 45 44 52 56 61 59 54 57 72
52 49 42 36 32 30 30 31 33 32 24 18 16 16 16 26 41 53 52 47 43 38 36 39 41 42 39 33 29 27 28 32
47 42 38 36 36 36 35 33 31 24 18 19 21 19 22 33 36 35 34 34 36 36 34 33 33 33 32 32 31 32 31 31
46 43 38 39 38 33 30 28 22 19 21 22 23 25 30 31 30 30 29 29 29 28 28 28 31 35 34 34 34 35 36 33
49 43 39 33 29 28 25 22 21 23 24 22 20 18 24 24 24 25 25 26 27 29 31 35 36 38 40 39 35 32 34 39
42 33 29 28 27 24 22 23 22 22 21 19 17 19 21 24 26 27 30 31 33 34 34 35 35 34 36 39 40 39 36 33
29 28 26 24 23 23 23 21 20 19 18 20 21 23 26 28 31 36 40 42 43 44 45 46 45 43 43 42 36 38 41 51
26 24 23 23 23 20 19 19 20 21 23 24 27 30 32 36 41 43 43 44 45 51 56 58 59 59 59 54 50 44 42 57
24 23 23 22 19 19 21 22 23 25 24 25 27 29 38 44 47 52 55 56 57 58 58 57 57 58 58 60 62 59 57 77
24 22 21 21 23 24 24 23 23 22 24 27 31 42 44 45 44 44 47 48 50 55 54 56 59 60 72 87 88 79 72 68
19 20 23 26 26 24 23 23 23 25 30 34 42 44 41 39 46 47 47 49 55 62 67 66 66 68 72 87 93 92 89 88
24 27 28 27 27 25 25 26 30 33 34 40 41 34 40 47 48 49 50 58 62 66 73 82 86 78 78 98 97 89 84 79
30 29 30 28 27 27 30 34 32 32 37 39 38 51 50 48 49 50 54 53 60 79 76 78 86 82 92 97 98 99 100 98

GFSFLT1_850_rhum_234.txt.gz
RH
46 41 42 52 57 54 58 91 100 99 94 99 94 98 84 90 74 54 43 42 45 43 42 43 52 56 50 39 32 34 48 51
56 49 42 45 51 63 68 96 100 100 81 84 96 83 66 51 32 30 24 18 17 20 31 43 44 43 44 47 48 44 40 43
73 69 60 57 56 82 98 100 94 100 89 85 84 58 37 23 18 15 15 17 17 18 17 19 22 24 30 38 53 63 68 66
84 80 80 76 80 99 99 100 99 93 86 74 37 31 22 20 20 19 17 18 18 18 20 24 34 46 57 74 82 84 83 76
80 81 82 91 98 100 99 92 87 77 46 27 24 19 13 10 10 10 10 14 20 24 32 39 48 45 53 61 64 68 69 68
73 75 78 92 94 94 87 79 56 29 20 16 15 13 9 8 7 10 16 26 34 39 41 39 37 34 37 43 42 33 28 26
65 61 66 70 68 65 56 40 27 22 21 22 18 12 9 9 12 21 34 40 40 36 32 30 32 33 33 32 31 30 28 26
62 56 52 52 48 42 36 30 25 28 28 20 14 12 11 12 22 32 33 32 32 32 31 30 29 29 30 31 33 33 33 34
59 55 52 49 47 43 37 31 29 30 22 17 16 16 17 22 26 29 30 30 29 29 29 31 32 34 38 41 42 40 37 34
58 54 51 47 43 36 33 33 30 23 20 20 20 18 18 22 26 26 26 26 26 26 26 27 28 32 35 39 38 40 41 38
58 53 46 37 35 36 32 29 23 22 21 21 19 15 14 18 20 20 22 23 25 28 31 35 38 38 38 39 38 36 36 36
57 50 39 38 36 32 29 24 22 21 21 19 16 17 20 21 23 25 29 34 39 43 45 46 48 50 50 50 49 47 47 45
54 45 40 36 30 28 25 24 22 20 19 18 19 22 24 23 23 29 39 42 45 50 52 55 56 57 58 58 59 60 59 56
52 43 36 30 28 26 24 22 20 19 19 20 23 23 22 20 22 28 35 44 48 47 45 46 46 47 49 51 55 56 61 65
48 35 30 29 27 25 22 20 19 19 21 22 22 24 23 24 29 31 28 34 38 39 40 42 46 53 58 60 66 81 91 92
35 30 30 27 25 22 21 20 21 23 24 27 28 28 30 29 22 19 34 40 41 44 48 56 62 64 66 68 77 83 79 78
31 28 27 25 22 22 23 24 26 29 33 32 30 30 23 14 20 37 42 44 47 48 57 65 63 60 66 74 75 80 77 77
28 26 25 24 25 25 26 28 31 34 33 31 26 16 11 25 38 41 47 49 51 55 64 68 65 72 78 72 82 87 92 95
27 26 25 30 31 32 32 33 33 33 31 21 14 13 31 42 44 54 55 60 71 65 57 60 76 80 72 67 71 78 76 73

GFSFLT1_850_rhum_237.txt.gz
RH
49 47 40 37 37 59 83 86 91 85 85 99 100 95 89 82 86 80 70 54 43 35 29 26 27 29 29 28 28 31 36 40
52 49 42 42 49 55 86 96 100 94 92 96 99 86 88 85 63 38 24 18 18 17 16 17 17 18 20 22 28 40 44 52
54 50 47 46 59 58 70 97 94 93 93 92 76 80 70 49 31 23 21 19 14 11 10 10 11 16 20 29 40 49 55 55
61 55 51 47 58 63 75 99 93 99 100 90 84 76 44 27 24 20 12 8 7 7 9 13 17 20 25 28 33 42 44 41
58 56 54 55 65 96 92 96 99 100 98 83 74 50 26 19 11 7 6 7 8 12 16 19 23 26 27 25 29 34 32 29
59 59 60 68 91 98 99 98 100 99 82 55 35 23 12 9 7 6 8 11 14 17 22 25 25 26 28 28 27 28 29 28
64 67 74 86 99 99 97 99 88 62 31 19 15 14 11 8 8 10 14 18 22 26 27 28 29 30 31 34 35 35 36 35
78 77 89 98 99 94 87 79 52 26 20 19 18 14 12 10 10 10 14 20 25 25 27 29 30 31 32 35 38 40 41 40
75 78 86 90 81 72 62 44 37 25 24 21 18 16 14 11 9 12 18 20 21 25 26 26 26 27 29 32 34 36 38 38
74 76 73 77 66 55 44 33 27 26 23 20 18 16 12 10 11 14 17 19 23 25 27 31 34 37 40 41 42 43 44 44
72 71 66 60 53 44 36 31 28 26 22 20 18 13 12 13 14 16 20 25 28 32 37 40 41 42 46 49 50 50 52 52
71 69 60 54 47 42 36 32 29 24 21 20 17 14 16 17 18 21 27 29 33 36 38 39 40 43 46 48 51 53 56 57
72 70 57 52 46 38 33 29 25 23 21 19 17 18 20 21 22 24 22 23 25 27 28 31 33 35 37 39 42 47 48 50
73 67 58 52 40 34 30 27 24 22 20 19 20 21 22 23 24 20 18 17 16 28 32 33 34 40 45 50 51 49 50 51
68 64 53 42 36 32 28 25 22 21 20 22 23 23 26 23 18 17 13 15 28 32 32 36 42 50 52 49 48 48 50 51
64 61 47 39 34 30 26 23 22 22 23 25 25 26 21 17 18 13 17 30 33 34 38 41 47 46 47 47 47 49 51 54
60 57 46 37 32 28 24 23 24 26 27 26 26 21 17 17 16 21 31 32 36 42 44 48 49 54 51 50 56 60 61 59
57 54 43 35 31 26 24 24 25 27 26 26 25 19 17 16 24 35 36 38 43 49 52 52 57 60 60 55 56 61 62 61
52 50 42 34 28 25 24 27 29 28 31 29 22 18 18 29 41 40 37 45 48 48 54 65 66 65 64 58 58 61 63 66